TimeEDT,TemperatureF,Dew PointF,Humidity,Sea Level PressureIn,VisibilityMPH,Wind Direction,Wind SpeedMPH,Gust SpeedMPH,PrecipitationIn,Events,Conditions,WindDirDegrees,DateUTC
12:00 AM,23.0,21.2,93,30.18,1.2,NNE,6.9,-,N/A,Snow,Light Snow,30,2013-10-21 04:00:00
12:03 AM,23.0,21.2,93,30.18,2.2,NNE,8.1,-,N/A,Snow,Light Snow,30,2013-10-21 04:03:00
12:04 AM,23.0,21.2,93,30.18,3.0,NNE,8.1,-,N/A,Snow,Light Snow,30,2013-10-21 04:04:00
12:07 AM,23.0,21.2,93,30.18,2.2,NNE,8.1,-,N/A,Snow,Light Snow,30,2013-10-21 04:07:00
12:10 AM,23.0,21.2,93,30.18,2.0,NNE,8.1,-,N/A,Snow,Light Snow,30,2013-10-21 04:10:00
12:12 AM,23.0,21.2,93,30.18,1.8,NNE,8.1,-,N/A,Rain-Snow,Light Snow,30,2013-10-21 04:12:00
12:18 AM,23.0,21.2,93,30.18,1.5,NNE,5.8,-,N/A,Rain,Light Freezing Rain,30,2013-10-21 04:18:00
12:19 AM,23.0,21.2,93,30.18,1.5,NNE,5.8,-,N/A,Rain,Light Freezing Rain,30,2013-10-21 04:19:00
12:20 AM,23.0,21.2,93,30.18,1.5,NNE,6.9,-,N/A,Rain,Freezing Rain,30,2013-10-21 04:20:00
12:22 AM,23.0,21.2,93,30.18,1.5,NNE,8.1,-,N/A,,Overcast,30,2013-10-21 04:22:00
12:24 AM,23.0,21.2,93,30.18,1.8,NNE,8.1,-,N/A,Snow,Light Snow,30,2013-10-21 04:24:00
12:25 AM,23.0,21.2,93,30.18,2.2,NNE,8.1,-,N/A,Snow,Light Snow,20,2013-10-21 04:25:00
12:27 AM,23.0,21.2,93,30.18,3.0,NNE,8.1,-,N/A,Snow,Light Snow,20,2013-10-21 04:27:00
12:30 AM,23.0,21.2,93,30.18,2.5,North,8.1,-,N/A,Snow,Light Snow,10,2013-10-21 04:30:00
12:31 AM,23.0,21.2,93,30.18,2.0,North,8.1,-,N/A,Snow,Light Snow,10,2013-10-21 04:31:00
12:41 AM,23.0,21.2,93,30.18,2.2,NNE,9.2,-,N/A,Snow,Light Snow,30,2013-10-21 04:41:00
12:44 AM,23.0,21.2,93,30.18,2.0,NNE,8.1,-,N/A,Snow,Light Snow,30,2013-10-21 04:44:00
12:54 AM,23.0,23.0,100,30.18,1.2,NNE,8.1,-,N/A,Snow,Light Snow,30,2013-10-21 04:54:00
1:00 AM,23.0,23.0,100,30.18,1.8,NNE,8.1,-,N/A,Snow,Light Snow,20,2013-10-21 05:00:00
1:02 AM,23.0,23.0,100,30.18,2.5,NNE,9.2,-,N/A,Snow,Light Snow,20,2013-10-21 05:02:00
1:03 AM,23.0,23.0,100,30.18,4.0,NNE,9.2,-,N/A,Snow,Light Snow,30,2013-10-21 05:03:00
1:04 AM,23.0,23.0,100,30.18,5.0,NNE,8.1,-,N/A,,Overcast,30,2013-10-21 05:04:00
1:07 AM,23.0,23.0,100,30.18,2.5,NE,6.9,-,N/A,,Overcast,40,2013-10-21 05:07:00
1:08 AM,23.0,23.0,100,30.18,2.2,NNE,8.1,-,N/A,Snow,Light Snow,30,2013-10-21 05:08:00
1:09 AM,23.0,23.0,100,30.18,2.0,North,8.1,-,N/A,Snow,Light Snow,10,2013-10-21 05:09:00
1:11 AM,23.0,23.0,100,30.18,1.8,North,10.4,-,N/A,Snow,Light Snow,350,2013-10-21 05:11:00
1:24 AM,23.0,23.0,100,30.18,1.0,North,10.4,-,N/A,Snow,Light Snow,350,2013-10-21 05:24:00
1:31 AM,23.0,23.0,100,30.18,1.0,NNW,8.1,-,N/A,Rain-Snow,Light Snow,340,2013-10-21 05:31:00
1:37 AM,23.0,21.2,93,30.18,0.8,NNW,11.5,-,N/A,Rain,Light Freezing Rain,340,2013-10-21 05:37:00
1:40 AM,23.0,21.2,93,30.19,0.8,NNW,11.5,-,N/A,Rain-Snow,Light Snow,330,2013-10-21 05:40:00
1:44 AM,23.0,21.2,93,30.19,0.8,NNW,11.5,-,N/A,Snow,Light Snow,330,2013-10-21 05:44:00
1:46 AM,23.0,21.2,93,30.19,0.8,NNW,11.5,-,N/A,Rain-Snow,Light Snow,330,2013-10-21 05:46:00
1:52 AM,21.2,21.2,100,30.19,0.8,NNW,10.4,-,N/A,Rain,Light Freezing Rain,330,2013-10-21 05:52:00
2:00 AM,21.2,21.2,100,30.19,0.8,NNW,9.2,-,N/A,Rain,Light Freezing Rain,330,2013-10-21 06:00:00
2:05 AM,21.2,21.2,100,30.19,1.2,NW,9.2,-,N/A,Rain,Light Freezing Rain,320,2013-10-21 06:05:00
2:08 AM,21.2,21.2,100,30.19,2.2,NW,9.2,-,N/A,Rain,Light Freezing Rain,320,2013-10-21 06:08:00
2:10 AM,21.2,21.2,100,30.19,3.0,NNW,9.2,-,N/A,Rain,Light Freezing Rain,330,2013-10-21 06:10:00
2:25 AM,21.2,21.2,100,30.19,6.0,NNW,9.2,-,N/A,Rain,Light Freezing Rain,330,2013-10-21 06:25:00
2:26 AM,21.2,21.2,100,30.19,6.0,NNW,9.2,-,N/A,Rain,Light Freezing Rain,330,2013-10-21 06:26:00
2:27 AM,21.2,21.2,100,30.19,8.0,NNW,9.2,-,N/A,Rain,Freezing Rain,330,2013-10-21 06:27:00
2:31 AM,21.2,21.2,100,30.19,9.0,NNW,9.2,-,N/A,,Overcast,330,2013-10-21 06:31:00
2:51 AM,21.2,19.4,93,30.19,4.0,NNW,8.1,-,N/A,Snow,Light Snow,330,2013-10-21 06:51:00
2:55 AM,21.2,19.4,93,30.19,2.5,NW,8.1,-,N/A,Snow,Light Snow,320,2013-10-21 06:55:00
3:00 AM,19.4,19.4,100,30.19,3.0,NNW,9.2,-,N/A,Snow,Light Snow,330,2013-10-21 07:00:00
3:03 AM,19.4,19.4,100,30.19,6.0,NNW,9.2,-,N/A,Snow,Light Snow,330,2013-10-21 07:03:00
3:30 AM,21.2,21.2,100,30.19,4.0,North,10.4,-,N/A,Snow,Light Snow,350,2013-10-21 07:30:00
3:46 AM,23.0,21.2,93,30.19,2.5,NNW,10.4,-,N/A,Snow,Light Snow,330,2013-10-21 07:46:00
3:49 AM,21.2,19.4,93,30.19,2.0,NNW,11.5,-,N/A,Snow,Light Snow,330,2013-10-21 07:49:00
3:52 AM,19.4,19.4,100,30.19,1.0,NNW,10.4,-,N/A,Snow,Light Snow,330,2013-10-21 07:52:00
3:54 AM,19.4,19.4,100,30.19,1.0,NNW,10.4,-,N/A,Snow,Light Snow,330,2013-10-21 07:54:00
3:57 AM,19.4,19.4,100,30.19,0.8,NNW,10.4,-,N/A,Rain-Snow,Light Snow,330,2013-10-21 07:57:00
4:00 AM,19.4,17.6,93,30.19,0.6,NNW,10.4,-,N/A,Rain-Snow,Light Snow,330,2013-10-21 08:00:00
4:03 AM,19.4,19.4,100,30.19,0.6,NNW,10.4,-,N/A,Rain,Light Freezing Rain,330,2013-10-21 08:03:00
4:16 AM,19.4,19.4,100,30.19,1.5,NNW,9.2,-,N/A,Rain,Light Freezing Rain,330,2013-10-21 08:16:00
4:32 AM,19.4,17.6,93,30.19,1.5,NNW,9.2,-,N/A,Rain-Snow,Light Snow,330,2013-10-21 08:32:00
4:33 AM,19.4,17.6,93,30.19,1.5,NNW,8.1,-,N/A,Rain-Snow,Light Snow,330,2013-10-21 08:33:00
4:34 AM,19.4,17.6,93,30.19,1.5,NNW,9.2,-,N/A,Rain-Snow,Light Snow,330,2013-10-21 08:34:00
4:36 AM,19.4,17.6,93,30.19,1.5,NNW,9.2,-,N/A,Snow,Light Snow,340,2013-10-21 08:36:00
4:42 AM,21.2,19.4,93,30.19,2.5,North,9.2,-,N/A,Snow,Light Snow,360,2013-10-21 08:42:00
4:43 AM,21.2,19.4,93,30.19,3.0,North,9.2,-,N/A,Snow,Light Snow,360,2013-10-21 08:43:00
4:50 AM,23.0,21.2,93,30.19,2.0,North,10.4,-,N/A,Snow,Light Snow,360,2013-10-21 08:50:00
4:58 AM,23.0,21.2,93,30.19,2.5,NNE,10.4,-,N/A,Snow,Light Snow,20,2013-10-21 08:58:00
5:00 AM,23.0,21.2,93,30.19,2.5,North,10.4,-,N/A,Snow,Light Snow,10,2013-10-21 09:00:00
5:03 AM,23.0,21.2,93,30.19,2.0,North,11.5,-,N/A,Snow,Light Snow,10,2013-10-21 09:03:00
5:08 AM,23.0,21.2,93,30.19,2.2,NNE,11.5,-,N/A,Snow,Light Snow,20,2013-10-21 09:08:00
5:12 AM,23.0,21.2,93,30.19,3.0,North,10.4,-,N/A,Snow,Light Snow,360,2013-10-21 09:12:00
5:18 AM,23.0,21.2,93,30.19,2.5,North,10.4,-,N/A,Snow,Light Snow,10,2013-10-21 09:18:00
5:27 AM,21.2,21.2,100,30.19,2.0,North,10.4,-,N/A,Snow,Light Snow,10,2013-10-21 09:27:00
5:33 AM,21.2,21.2,100,30.19,1.0,North,9.2,-,N/A,Snow,Light Snow,360,2013-10-21 09:33:00
5:37 AM,21.2,21.2,100,30.19,1.2,North,11.5,-,N/A,Snow,Light Snow,360,2013-10-21 09:37:00
5:40 AM,21.2,19.4,93,30.19,2.2,North,11.5,-,N/A,Snow,Light Snow,360,2013-10-21 09:40:00
5:42 AM,21.2,19.4,93,30.20,3.0,North,9.2,-,N/A,Snow,Light Snow,360,2013-10-21 09:42:00
5:45 AM,21.2,19.4,93,30.19,3.0,North,9.2,-,N/A,,Overcast,350,2013-10-21 09:45:00
5:46 AM,21.2,19.4,93,30.19,2.0,North,10.4,-,N/A,,Overcast,350,2013-10-21 09:46:00
5:48 AM,21.2,19.4,93,30.19,1.2,North,8.1,-,N/A,,Overcast,350,2013-10-21 09:48:00
5:50 AM,21.2,19.4,93,30.20,1.0,NNW,8.1,-,N/A,,Overcast,330,2013-10-21 09:50:00
5:53 AM,19.4,17.6,93,30.20,0.8,NW,8.1,-,N/A,Rain,Light Freezing Rain,320,2013-10-21 09:53:00
5:55 AM,17.6,15.8,93,30.20,0.8,NW,8.1,-,N/A,Rain-Snow,Light Snow,320,2013-10-21 09:55:00
6:00 AM,17.6,15.8,93,30.20,0.8,NW,8.1,-,N/A,Rain-Snow,Light Snow,320,2013-10-21 10:00:00
6:03 AM,17.6,15.8,93,30.20,0.8,NW,8.1,-,N/A,Snow,Light Snow,320,2013-10-21 10:03:00
6:11 AM,15.8,15.8,100,30.20,1.2,NW,8.1,-,N/A,,Overcast,320,2013-10-21 10:11:00
6:17 AM,15.8,14.0,93,30.20,2.2,NW,8.1,-,N/A,,Overcast,320,2013-10-21 10:17:00
6:22 AM,15.8,14.0,93,30.20,2.0,NW,8.1,-,N/A,,Overcast,310,2013-10-21 10:22:00
6:26 AM,15.8,14.0,93,30.20,1.0,NW,9.2,-,N/A,,Overcast,310,2013-10-21 10:26:00
6:29 AM,15.8,14.0,93,30.20,1.0,NW,9.2,-,N/A,,Overcast,310,2013-10-21 10:29:00
6:36 AM,14.0,12.2,93,30.20,1.2,NW,9.2,-,N/A,,Overcast,310,2013-10-21 10:36:00
6:52 AM,14.0,12.2,93,30.20,1.0,NW,9.2,-,N/A,,Overcast,320,2013-10-21 10:52:00
6:57 AM,14.0,12.2,93,30.20,1.0,NW,9.2,-,N/A,,Overcast,320,2013-10-21 10:57:00
7:00 AM,14.0,12.2,93,30.21,1.0,NW,9.2,-,N/A,,Overcast,320,2013-10-21 11:00:00
7:09 AM,14.0,12.2,93,30.20,1.2,NW,9.2,-,N/A,,Overcast,320,2013-10-21 11:09:00
7:16 AM,14.0,12.2,93,30.20,2.2,NW,10.4,-,N/A,,Overcast,320,2013-10-21 11:16:00
7:19 AM,14.0,12.2,93,30.20,3.0,NW,10.4,-,N/A,,Overcast,320,2013-10-21 11:19:00
7:22 AM,14.0,12.2,93,30.20,6.0,NW,10.4,-,N/A,,Overcast,320,2013-10-21 11:22:00
7:33 AM,12.2,10.4,92,30.20,9.0,NW,10.4,-,N/A,,Overcast,320,2013-10-21 11:33:00
7:38 AM,12.2,10.4,92,30.20,5.0,NW,10.4,-,N/A,,Overcast,320,2013-10-21 11:38:00
7:57 AM,12.2,10.4,92,30.20,6.0,NNW,10.4,-,N/A,,Overcast,330,2013-10-21 11:57:00
8:00 AM,12.2,10.4,92,30.20,10.0,NNW,11.5,-,N/A,Fog,Mostly Cloudy,330,2013-10-21 12:00:00
9:00 AM,8.6,6.8,92,30.20,10.0,NNW,10.4,-,N/A,Fog,Scattered Clouds,330,2013-10-21 13:00:00
10:00 AM,8.6,6.8,92,30.19,15.0,NNW,11.5,-,N/A,Fog,Scattered Clouds,330,2013-10-21 14:00:00
11:00 AM,10.4,8.6,92,30.19,15.0,NNW,12.7,-,N/A,Fog,Mostly Cloudy,340,2013-10-21 15:00:00
11:26 AM,12.2,10.4,92,30.19,15.0,NNW,11.5,-,N/A,Fog,Mostly Cloudy,340,2013-10-21 15:26:00
12:00 PM,14.0,14.0,100,30.19,10.0,North,11.5,-,N/A,Fog,Mostly Cloudy,350,2013-10-21 16:00:00
12:35 PM,17.6,15.8,93,30.19,0.4,NNW,10.4,-,N/A,Fog,Light Freezing Fog,340,2013-10-21 16:35:00
12:48 PM,17.6,15.8,93,30.19,0.5,NNW,9.2,-,N/A,Fog,Light Freezing Fog,340,2013-10-21 16:48:00
1:00 PM,15.8,14.0,93,30.19,0.4,NNW,9.2,-,N/A,Fog,Light Freezing Fog,340,2013-10-21 17:00:00
1:39 PM,17.6,15.8,93,30.19,0.8,NNW,10.4,-,N/A,,Mist,340,2013-10-21 17:39:00
1:48 PM,17.6,15.8,93,30.19,2.0,NNW,8.1,-,N/A,,Mist,330,2013-10-21 17:48:00
2:00 PM,15.8,14.0,93,30.19,15.0,NNW,11.5,-,N/A,Fog,Mostly Cloudy,330,2013-10-21 18:00:00
3:00 PM,14.0,12.2,93,30.19,15.0,NW,11.5,-,N/A,Fog,Mostly Cloudy,320,2013-10-21 19:00:00
4:00 PM,14.0,12.2,93,30.19,15.0,NNW,12.7,-,N/A,,Mostly Cloudy,330,2013-10-21 20:00:00
5:00 PM,12.2,10.4,92,30.19,15.0,NNW,11.5,-,N/A,,Mostly Cloudy,330,2013-10-21 21:00:00
6:00 PM,12.2,10.4,92,30.19,15.0,NNW,11.5,-,N/A,,Mostly Cloudy,340,2013-10-21 22:00:00
7:00 PM,12.2,10.4,92,30.19,15.0,NNW,11.5,-,N/A,,Scattered Clouds,340,2013-10-21 23:00:00
8:00 PM,10.4,8.6,92,30.18,15.0,North,10.4,-,N/A,,Scattered Clouds,350,2013-10-22 00:00:00
9:00 PM,19.4,17.6,93,30.18,9.0,North,12.7,18.4,N/A,,Clear,360,2013-10-22 01:00:00
10:00 PM,19.4,17.6,93,30.18,9.0,North,13.8,-,N/A,,Partly Cloudy,360,2013-10-22 02:00:00
11:00 PM,17.6,17.6,100,30.17,9.0,North,11.5,-,N/A,,Clear,360,2013-10-22 03:00:00